Miscellaneous Local Product
Issued by NWS North Platte, NE

Home | Current Version | Previous Version | Graphics & Text | Print | Product List | Glossary Off
Versions: 1 2 3 4 5 6 7 8 9 10 11 12 13 14 15 16 17 18 19 20 21 22 23 24 25 26 27 28 29 30 31 32 33 34 35 36 37 38 39 40 41 42 43 44 45 46 47 48 49 50

756
AXUS43 KLBF 241110
MISLBF


WESTERN AND NORTH CENTRAL NEBRASKA HOURLY WEATHER ROUNDUP
NATIONAL WEATHER SERVICE NORTH PLATTE NE
500 AM CST FRI FEB 24 2017

NOTE: "FAIR" INDICATES FEW OR NO CLOUDS BELOW 12,000 FEET WITH NO
SIGNIFICANT WEATHER AND/OR OBSTRUCTIONS TO VISIBILITY.

NOTE: STATIONS NOT REPORTING VARIABLES SUCH AS SKY/WEATHER OR
PRESSURE ARE PROVIDED BY RAWS AND APRS NETWORKS AND ARE NOT UNDER
NATIONAL WEATHER SERVICE QUALITY CONTROL.

...OBSERVATIONS IN AND NEAR THE EASTERN PANHANDLE OF NEBRASKA...

CITY           SKY/WX    TMP DP  RH WIND       PRES   REMARKS
PINE RIDGE     LGT SNOW  23  20  88 N10       29.96R FOG     WCI  12
CHADRON        LGT SNOW  22  19  89 N6        29.97S FOG     WCI  14
ALLIANCE       CLOUDY    19  16  88 N16       29.90R FOG     WCI   4
SIDNEY         LGT SNOW  19  17  92 N13       29.88R FOG     WCI   6
CRESCENT LAKE    N/A     19  18  94 N14         N/A  WCI   6
$$

...OBSERVATIONS IN NORTHERN NEBRASKA AND FAR SOUTHERN SOUTH DAKOTA...

CITY           SKY/WX    TMP DP  RH WIND       PRES   REMARKS
WINNER         CLOUDY    22  16  78 N18       29.97R WCI   7
VALENTINE      CLOUDY    22  18  85 N20       29.94R FOG     WCI   7
THEDFORD       CLOUDY    24  22  91 N21G30    29.88R WCI   9
AINSWORTH      LGT SNOW  22  20  95 N28G35    29.91R WCI   4
O`NEILL        CLOUDY    22  20  93 N28G33    29.88R WCI   4
ORD            FOG       23  19  85 N22G35    29.81R VSB 3/4 WCI   8
BROKEN BOW     FOG       23  21  92 N24G32    29.81R VSB 3/4 WCI   7
VALENTINE NWR    N/A     22  20  93 N16G29      N/A  WCI   8
BUTTE            N/A     19  17  93 NW16G30     N/A  WCI   4
HALSEY           N/A     21  19  93 N12G21      N/A  WCI   9
CHAMBERS         N/A     21  19  91 N8G15       N/A  WCI  11
EWING            N/A     21  20  94 N14G22      N/A  WCI   8
$$

...OBSERVATIONS IN SOUTHWEST NEBRASKA AND FAR NORTHEAST COLORADO...

CITY           SKY/WX    TMP DP  RH WIND       PRES   REMARKS
HOLYOKE        LGT SNOW  25  21  86 N13       29.87R WCI  13
IMPERIAL       LGT SNOW  22  18  85 N23       29.86R FOG     WCI   6
OGALLALA       LGT SNOW  24  20  83 N23       29.88R WCI   9
NORTH PLATTE   CLOUDY    24  20  84 N18G24    29.84R FOG     WCI  10
MCCOOK         LGT SNOW  24  21  88 N18G29    29.81F FOG     WCI  10
LEXINGTON      LGT SNOW  25  21  87 N28G33    29.80R WCI   8
STAPLETON        N/A     21  20  94 CALM        N/A
GOTHENBURG       N/A     22  19  89 N14         N/A  WCI   9
CALLAWAY         N/A     21  19  93 N22         N/A  WCI   5
$$

...OBSERVATIONS IN CENTRAL LINCOLN COUNTY AREA...

CITY           SKY/WX    TMP DP  RH WIND       PRES   REMARKS
N.P. AIRPORT   CLOUDY    24  20  84 N18G24    29.84R FOG     WCI  10
N.P. DOWNTOWN    N/A     22  20  90 N15G24      N/A  WCI   9
N.P. SOUTHEAST   N/A     22  20  91 N12G21      N/A  WCI  11
N.P. HILLCREST   N/A     22  20  93 N24G35      N/A  WCI   6
$$

...SOME OBSERVATIONS FROM AROUND THE REGION...

CITY           SKY/WX    TMP DP  RH WIND       PRES   REMARKS
LARAMIE        CLOUDY     4   1  88 W5        29.73S WCI  -5
CHEYENNE       LGT SNOW  12   9  87 N8        29.81R FOG     WCI   0
DENVER         FLURRIES  19  14  81 N10       29.84S WCI   7
AKRON          FLURRIES  17  14  88 N8        29.84R WCI   7
SCOTTSBLUFF    CLOUDY    21  15  78 N13       29.92R WCI   9
RAPID CITY     CLOUDY    22  18  85 N13       30.00R WCI  10
BISMARCK       PTCLDY    17  11  77 NW9       30.12F WCI   6
PIERRE         MOCLDY    22  14  71 N17       30.04R WCI   8
SIOUX FALLS    CLOUDY    24  20  84 N23G33    29.84R BLWGSNOWWCI   9
OMAHA          LGT SNOW  32  28  85 N20       29.65R VSB 1   WCI  20
GRAND ISLAND   LGT SNOW  25  24  96 N17       29.76R FOG     WCI  12
KANSAS CITY    CLOUDY    38  35  89 NW14G22   29.56R WCI  30
WICHITA        CLOUDY    36  27  69 NW25G35   29.72R WCI  24
OKLAHOMA CITY  PTCLDY    39  32  76 N25G32    29.72R WCI  28
DALLAS         PTCLDY    59  43  55 NW22      29.63R
AMARILLO       PTCLDY    26  21  81 N16       29.83R WCI  14
DODGE CITY     PTCLDY    25  20  81 NW17      29.79R WCI  12
HAYS           CLOUDY    29  24  82 N17G26    29.79R WCI  17
GOODLAND       CLOUDY    20  18  92 NW16      29.81R WCI   6
$$




USA.gov is the U.S. government's official web portal to all federal, state and local government web resources and services.